Precipitable_Water
0.67 0.67 0.67 0.69 0.64 0.52 0.50 0.49 0.48 0.44 0.44 0.44 0.45 0.44 0.44 0.45 0.46 0.46 0.46 0.48 0.44 0.38
0.66 0.74 0.72 0.60 0.54 0.52 0.49 0.43 0.39 0.40 0.39 0.38 0.36 0.38 0.40 0.41 0.44 0.43 0.45 0.45 0.42 0.40
0.74 0.72 0.60 0.53 0.51 0.47 0.42 0.41 0.39 0.38 0.37 0.37 0.37 0.38 0.39 0.40 0.40 0.45 0.45 0.44 0.39 0.36
0.73 0.65 0.55 0.50 0.47 0.42 0.42 0.40 0.38 0.37 0.37 0.38 0.38 0.38 0.38 0.40 0.43 0.39 0.38 0.38 0.36 0.37
0.66 0.55 0.49 0.47 0.43 0.43 0.41 0.41 0.38 0.38 0.39 0.38 0.38 0.37 0.37 0.37 0.36 0.35 0.35 0.35 0.36 0.34
0.57 0.53 0.47 0.43 0.43 0.43 0.42 0.39 0.38 0.40 0.38 0.38 0.35 0.34 0.35 0.34 0.34 0.34 0.34 0.34 0.33 0.29
0.52 0.49 0.44 0.43 0.44 0.43 0.42 0.39 0.39 0.39 0.39 0.36 0.33 0.33 0.33 0.34 0.34 0.33 0.32 0.29 0.26 0.23
0.50 0.47 0.43 0.44 0.45 0.45 0.40 0.39 0.39 0.38 0.37 0.36 0.35 0.33 0.32 0.32 0.31 0.26 0.24 0.24 0.23 0.21
0.46 0.41 0.42 0.44 0.46 0.40 0.37 0.37 0.37 0.37 0.37 0.34 0.33 0.31 0.29 0.27 0.25 0.23 0.21 0.21 0.21 0.21
0.43 0.41 0.43 0.43 0.39 0.36 0.36 0.36 0.36 0.37 0.36 0.35 0.35 0.32 0.29 0.25 0.23 0.21 0.21 0.21 0.21 0.20
0.42 0.43 0.42 0.39 0.37 0.36 0.35 0.36 0.35 0.35 0.35 0.36 0.34 0.32 0.27 0.25 0.23 0.22 0.23 0.23 0.22 0.20
0.40 0.42 0.40 0.36 0.34 0.36 0.36 0.34 0.32 0.34 0.35 0.34 0.33 0.32 0.27 0.24 0.23 0.22 0.22 0.23 0.22 0.21
0.42 0.38 0.35 0.34 0.34 0.35 0.35 0.32 0.32 0.31 0.33 0.33 0.33 0.31 0.27 0.24 0.23 0.21 0.21 0.22 0.21 0.21
0.38 0.36 0.34 0.33 0.33 0.33 0.32 0.32 0.31 0.31 0.32 0.32 0.33 0.31 0.28 0.25 0.23 0.22 0.21 0.20 0.19 0.20
Wind_Speed
22 24 26 28 31 33 34 36 38 39 40 40 42 43 45 46 47 48 48 47 47 49
25 27 28 32 33 33 35 36 38 39 41 42 44 45 46 47 48 48 48 47 47 44
28 29 30 33 34 35 36 37 38 40 42 44 45 46 47 47 47 46 46 45 44 42
30 30 32 33 35 36 37 38 40 41 43 45 46 46 47 47 47 46 45 43 41 38
30 32 34 35 36 36 37 39 41 42 44 45 47 47 47 46 45 44 43 41 37 36
31 33 35 36 36 37 39 41 42 43 45 46 47 46 44 43 43 42 39 36 34 33
32 35 36 36 36 38 41 42 43 44 45 46 45 43 43 42 41 38 36 34 32 31
34 36 36 36 37 40 42 42 43 44 44 44 44 42 41 41 39 37 35 32 30 29
35 36 35 37 39 41 41 42 43 43 43 43 43 40 40 39 38 36 32 30 28 28
35 35 37 38 40 41 42 43 44 43 43 43 42 39 39 38 35 33 29 28 27 27
35 37 38 40 41 42 42 43 43 43 42 41 41 38 38 35 33 29 27 26 26 26
36 39 40 41 41 42 43 42 43 42 41 40 39 36 35 32 29 27 25 24 25 25
37 39 40 41 41 42 42 42 42 40 40 38 37 35 32 29 27 25 23 23 23 23
38 40 40 41 41 41 41 41 41 40 39 38 35 32 29 26 25 23 22 22 22 22
Wind_Direction
296 298 301 304 306 306 307 308 309 309 310 310 310 309 308 308 307 306 306 304 303 302
296 300 300 304 306 306 308 309 310 310 311 311 311 310 309 309 307 306 306 304 304 303
296 298 301 304 305 307 308 309 310 311 312 312 312 312 311 310 309 307 307 305 304 302
295 297 301 304 306 307 309 310 311 312 313 313 314 313 312 311 309 308 307 305 304 301
292 297 301 304 306 307 309 310 311 312 313 314 314 313 313 312 311 310 307 306 303 301
292 297 301 303 305 307 310 311 312 313 314 315 315 315 315 314 313 311 309 306 304 302
294 298 301 302 303 306 310 311 311 313 314 315 316 315 315 315 314 313 310 307 305 303
296 299 300 301 303 307 309 310 311 312 313 315 315 315 316 315 314 313 310 307 305 304
297 299 299 301 304 307 309 310 311 312 313 314 315 315 315 314 313 312 309 307 306 306
298 299 300 302 304 306 309 310 311 311 312 312 313 313 313 314 313 311 309 308 308 309
299 301 302 303 304 306 308 310 311 311 311 312 313 311 313 313 312 310 308 308 309 310
298 302 303 304 305 306 308 309 310 310 311 312 311 311 311 311 310 309 308 309 310 312
300 303 304 305 306 306 307 308 309 310 312 312 310 310 308 308 308 307 307 309 312 315
300 303 304 306 307 306 307 308 309 309 310 310 309 307 305 303 304 304 306 309 312 316